When you browse on this site, cookies collect data to enhance your experience and personalize the content and advertising you see.
Visit our Privacy Policy to learn more. By continuing to use the site, you agree to this use of cookies and data.
  • In Germany
  • List of Countries
  • For 7 days
  • Water Temperature
  • Weather Map
  • Weather Widgets
  • user-avatar
    Login

    Hourly Weather Gold Coast

    Today, 16 September, Monday

    Time Temperature Precipitation Wind Pressure Humidity
    00:00 +13°C° 0 mm 3 mps 763 mmHg 89%
    01:00 +12°C° 0 mm 3 mps 762 mmHg 90%
    02:00 +12°C° 0 mm 3 mps 762 mmHg 89%
    03:00 +12°C° 0 mm 3 mps 762 mmHg 88%
    04:00 +12°C° 0 mm 3 mps 762 mmHg 88%
    05:00 +13°C° 0 mm 3 mps 762 mmHg 83%
    06:00 +14°C° 0 mm 3 mps 762 mmHg 78%
    07:00 +16°C° 0 mm 3 mps 762 mmHg 73%
    08:00 +19°C° 0 mm 3 mps 762 mmHg 62%
    09:00 +22°C° 0 mm 4 mps 762 mmHg 52%
    10:00 +26°C° 0 mm 5 mps 762 mmHg 41%
    11:00 +27°C° 0 mm 5 mps 761 mmHg 38%
    12:00 +28°C° 0 mm 5 mps 760 mmHg 34%
    13:00 +29°C° 0 mm 6 mps 759 mmHg 31%
    14:00 +28°C° 0 mm 6 mps 759 mmHg 36%
    15:00 +27°C° 0 mm 6 mps 759 mmHg 40%
    16:00 +26°C° 0 mm 6 mps 759 mmHg 44%
    17:00 +23°C° 0 mm 5 mps 759 mmHg 56%
    18:00 +20°C° 0 mm 5 mps 759 mmHg 69%
    19:00 +17°C° 0 mm 4 mps 759 mmHg 81%
    20:00 +17°C° 0 mm 4 mps 759 mmHg 84%
    21:00 +17°C° 0 mm 4 mps 759 mmHg 86%
    22:00 +15°C° 0 mm 4 mps 760 mmHg 89%
    23:00 +15°C° 0 mm 4 mps 759 mmHg 89%

    Tomorrow, 17 September, Tuesday

    Time Temperature Precipitation Wind Pressure Humidity
    00:00 +15°C° 0 mm 4 mps 759 mmHg 89%
    01:00 +14°C° 0 mm 4 mps 759 mmHg 88%
    02:00 +14°C° 0 mm 4 mps 759 mmHg 88%
    03:00 +14°C° 0 mm 4 mps 758 mmHg 87%
    04:00 +13°C° 0 mm 3 mps 758 mmHg 86%
    05:00 +14°C° 0 mm 3 mps 759 mmHg 81%
    06:00 +16°C° 0 mm 3 mps 759 mmHg 76%
    07:00 +17°C° 0 mm 3 mps 759 mmHg 71%
    08:00 +20°C° 0 mm 3 mps 759 mmHg 59%
    09:00 +25°C° 0 mm 2 mps 759 mmHg 48%
    10:00 +28°C° 0 mm 1 mps 760 mmHg 36%
    11:00 +29°C° 0 mm 2 mps 759 mmHg 35%
    12:00 +29°C° 0 mm 2 mps 758 mmHg 34%
    13:00 +29°C° 0 mm 2 mps 757 mmHg 33%
    14:00 +27°C° 0 mm 3 mps 757 mmHg 43%
    15:00 +25°C° 0 mm 3 mps 757 mmHg 52%
    16:00 +22°C° 0 mm 3 mps 757 mmHg 61%
    17:00 +21°C° 0.4 mm 3 mps 757 mmHg 71%
    18:00 +19°C° 0.4 mm 3 mps 757 mmHg 81%
    19:00 +18°C° 0.4 mm 3 mps 757 mmHg 91%
    20:00 +17°C° 0.1 mm 3 mps 758 mmHg 92%
    21:00 +17°C° 0.1 mm 4 mps 758 mmHg 94%
    22:00 +16°C° 0.1 mm 5 mps 758 mmHg 96%
    23:00 +15°C° 0.3 mm 4 mps 758 mmHg 96%

    Day after tomorrow, 18 September, Wednesday

    Time Temperature Precipitation Wind Pressure Humidity
    00:00 +15°C° 0.3 mm 4 mps 758 mmHg 96%
    01:00 +15°C° 0.3 mm 4 mps 758 mmHg 96%
    02:00 +14°C° 0 mm 4 mps 758 mmHg 96%
    03:00 +14°C° 0 mm 3 mps 759 mmHg 97%
    04:00 +13°C° 0 mm 3 mps 759 mmHg 97%
    05:00 +15°C° 0 mm 2 mps 759 mmHg 95%
    06:00 +15°C° 0 mm 2 mps 760 mmHg 94%
    07:00 +16°C° 0 mm 2 mps 760 mmHg 93%
    08:00 +18°C° 0 mm 2 mps 760 mmHg 77%
    09:00 +22°C° 0 mm 1 mps 760 mmHg 61%
    10:00 +25°C° 0 mm 1 mps 760 mmHg 45%
    11:00 +26°C° 0 mm 2 mps 759 mmHg 40%
    12:00 +27°C° 0 mm 2 mps 759 mmHg 35%
    13:00 +27°C° 0 mm 3 mps 758 mmHg 29%
    14:00 +27°C° 0 mm 3 mps 758 mmHg 34%
    15:00 +26°C° 0 mm 3 mps 758 mmHg 38%
    16:00 +25°C° 0 mm 3 mps 758 mmHg 43%
    17:00 +21°C° 0 mm 3 mps 759 mmHg 59%
    18:00 +18°C° 0 mm 3 mps 759 mmHg 74%
    19:00 +16°C° 0 mm 2 mps 760 mmHg 90%
    20:00 +15°C° 0 mm 2 mps 761 mmHg 91%
    21:00 +15°C° 0 mm 2 mps 761 mmHg 92%
    22:00 +15°C° 0 mm 1 mps 762 mmHg 93%
    23:00 +16°C° 0.2 mm 1 mps 762 mmHg 92%

    19 September, Thursday

    Time Temperature Precipitation Wind Pressure Humidity
    00:00 +16°C° 0.2 mm 2 mps 761 mmHg 92%
    01:00 +16°C° 0.2 mm 2 mps 761 mmHg 91%
    02:00 +16°C° 0.5 mm 2 mps 762 mmHg 93%
    03:00 +16°C° 0.5 mm 2 mps 762 mmHg 95%
    04:00 +16°C° 0.5 mm 1 mps 762 mmHg 96%
    05:00 +18°C° 0.5 mm 1 mps 762 mmHg 95%
    06:00 +18°C° 0.5 mm 1 mps 763 mmHg 94%
    07:00 +19°C° 0.5 mm 1 mps 763 mmHg 93%
    08:00 +20°C° 0.4 mm 1 mps 763 mmHg 89%
    09:00 +20°C° 0.4 mm 2 mps 763 mmHg 85%
    10:00 +21°C° 0.4 mm 2 mps 763 mmHg 81%
    11:00 +21°C° 0.6 mm 2 mps 763 mmHg 79%
    12:00 +22°C° 0.6 mm 3 mps 762 mmHg 77%
    13:00 +22°C° 0.6 mm 4 mps 762 mmHg 76%
    14:00 +22°C° 0.3 mm 4 mps 761 mmHg 76%
    15:00 +21°C° 0.3 mm 4 mps 761 mmHg 77%
    16:00 +21°C° 0.3 mm 4 mps 761 mmHg 77%
    17:00 +20°C° 0 mm 4 mps 762 mmHg 82%
    18:00 +18°C° 0 mm 3 mps 762 mmHg 87%
    19:00 +17°C° 0 mm 2 mps 763 mmHg 92%
    20:00 +17°C° 0 mm 2 mps 763 mmHg 93%
    21:00 +17°C° 0 mm 2 mps 763 mmHg 94%
    22:00 +16°C° 0 mm 2 mps 764 mmHg 95%
    23:00 +16°C° 0.1 mm 2 mps 763 mmHg 95%

    20 September, Friday

    Time Temperature Precipitation Wind Pressure Humidity
    00:00 +16°C° 0.1 mm 2 mps 763 mmHg 96%
    01:00 +16°C° 0.1 mm 2 mps 763 mmHg 96%
    02:00 +16°C° 0.3 mm 2 mps 763 mmHg 96%
    03:00 +16°C° 0.3 mm 2 mps 763 mmHg 96%
    04:00 +16°C° 0.3 mm 2 mps 763 mmHg 96%
    05:00 +18°C° 0 mm 1 mps 763 mmHg 94%
    06:00 +19°C° 0 mm 1 mps 764 mmHg 92%
    07:00 +19°C° 0 mm 1 mps 764 mmHg 91%
    08:00 +20°C° 0.1 mm 2 mps 764 mmHg 81%
    09:00 +22°C° 0.1 mm 3 mps 764 mmHg 71%
    10:00 +24°C° 0.1 mm 3 mps 764 mmHg 62%
    11:00 +23°C° 0.2 mm 4 mps 763 mmHg 63%
    12:00 +23°C° 0.2 mm 4 mps 763 mmHg 64%
    13:00 +23°C° 0.2 mm 4 mps 762 mmHg 66%
    14:00 +23°C° 0.1 mm 4 mps 762 mmHg 68%
    15:00 +22°C° 0.1 mm 4 mps 762 mmHg 71%
    16:00 +21°C° 0.1 mm 4 mps 762 mmHg 74%
    17:00 +20°C° 0 mm 3 mps 762 mmHg 81%
    18:00 +18°C° 0 mm 3 mps 763 mmHg 87%
    19:00 +17°C° 0 mm 2 mps 763 mmHg 94%
    20:00 +17°C° 0 mm 2 mps 763 mmHg 95%
    21:00 +17°C° 0 mm 2 mps 764 mmHg 95%
    22:00 +17°C° 0 mm 2 mps 764 mmHg 96%
    23:00 +16°C° 0.1 mm 2 mps 763 mmHg 96%

    21 September, Saturday

    Time Temperature Precipitation Wind Pressure Humidity
    00:00 +16°C° 0.1 mm 2 mps 763 mmHg 96%
    01:00 +16°C° 0.1 mm 2 mps 763 mmHg 96%
    02:00 +16°C° 0 mm 2 mps 763 mmHg 96%
    03:00 +16°C° 0 mm 2 mps 763 mmHg 96%
    04:00 +16°C° 0 mm 2 mps 762 mmHg 95%
    05:00 +16°C° 0 mm 1 mps 763 mmHg 94%
    06:00 +18°C° 0 mm 1 mps 763 mmHg 92%
    07:00 +19°C° 0 mm 1 mps 763 mmHg 90%
    08:00 +20°C° 0 mm 2 mps 763 mmHg 78%
    09:00 +23°C° 0 mm 2 mps 763 mmHg 66%
    10:00 +25°C° 0 mm 3 mps 763 mmHg 53%
    11:00 +25°C° 0 mm 3 mps 763 mmHg 51%
    12:00 +26°C° 0 mm 3 mps 762 mmHg 49%
    13:00 +26°C° 0 mm 3 mps 762 mmHg 47%
    14:00 +25°C° 0 mm 3 mps 761 mmHg 51%
    15:00 +24°C° 0 mm 3 mps 761 mmHg 55%
    16:00 +24°C° 0 mm 3 mps 761 mmHg 59%
    17:00 +21°C° 0 mm 3 mps 762 mmHg 69%
    18:00 +19°C° 0 mm 2 mps 762 mmHg 80%
    19:00 +17°C° 0 mm 2 mps 762 mmHg 91%
    20:00 +17°C° 0 mm 2 mps 763 mmHg 93%
    21:00 +17°C° 0 mm 2 mps 763 mmHg 95%
    22:00 +16°C° 0 mm 2 mps 763 mmHg 96%
    23:00 +17°C° 0 mm 2 mps 763 mmHg 96%
    Show more